Weather History for VDPP - February, 2013

Change the Weather History Date:

Wednesday, February 27, 2013

  Actual Average Record
Temperature  
Mean Temperature 86 °F -  
Max Temperature 96 °F 90 °F 96 °F (2013)
Min Temperature 77 °F 76 °F 72 °F (2014)
Cooling Degree Days 22    
Growing Degree Days 36 (Base 50)    
Moisture  
Dew Point 69 °F    
Average Humidity 53    
Maximum Humidity 70    
Minimum Humidity 34    
Precipitation  
Precipitation 0.00 in - - ()
Sea Level Pressure  
Sea Level Pressure 29.79 in    
Wind  
Wind Speed 6 mph ()    
Max Wind Speed 10 mph    
Max Gust Speed -    
Visibility 5.9 miles    
Events      
Averages and records for this station are not official NWS values.
T = Trace of Precipitation, MM = Missing Value Source: Averaged Metar Reports

Daily Weather History Graph

Daily Weather History Graph

Search for Another Location

Airport or City:

Trip Planner

Search our weather history database for the weather conditions in past years. The results will help you decide how hot, cold, wet, or windy it might be!

Date:

Astronomy

Feb. 27, 2013 Rise Set
Actual Time 6:16 AM ICT 6:10 PM ICT
Civil Twilight 5:55 AM ICT 6:31 PM ICT
Nautical Twilight 5:30 AM ICT 6:55 PM ICT
Astronomical Twilight 5:06 AM ICT 7:20 PM ICT
Moon 7:26 PM ICT (2/27) 6:57 AM ICT (2/27)
Length of Visible Light 12h 35m
Length of Day
11h 53m
Full, 98% of the Moon is Illuminated
Feb 27
Full
Mar 5
Last Quarter
Mar 12
New
Mar 20
First Quarter
Mar 27
Full

Hourly Weather History & Observations

Time (ICT) Temp. Heat Index Dew Point Humidity Pressure Visibility Wind Dir Wind Speed Gust Speed Precip Events Conditions
12:00 AM 82.4 °F 85.4 °F 68.0 °F 62% 29.80 in 5.6 mi SW 6.9 mph - N/A   Partly Cloudy
12:30 AM 82.4 °F 85.4 °F 68.0 °F 62% 29.80 in 5.6 mi SW 5.8 mph - N/A   Partly Cloudy
1:00 AM 82.4 °F 86.3 °F 69.8 °F 66% 29.80 in 5.6 mi SW 6.9 mph - N/A   Partly Cloudy
6:00 AM 80.6 °F 83.9 °F 69.8 °F 70% 29.80 in 6.2 mi SSW 4.6 mph - N/A   Scattered Clouds
6:30 AM 80.6 °F 83.9 °F 69.8 °F 70% 29.80 in 6.2 mi SSW 4.6 mph - N/A   Partly Cloudy
7:00 AM 80 °F - 72 °F 69% 29.88 in 6 mi Calm Calm - -   Mostly Cloudy
7:00 AM 82.4 °F 86.3 °F 69.8 °F 66% 29.83 in 5.6 mi SSW 5.8 mph - N/A   Scattered Clouds
7:30 AM 82.4 °F 86.3 °F 69.8 °F 66% 29.83 in 5.6 mi South 8.1 mph - N/A   Scattered Clouds
8:00 AM 84.2 °F 88.4 °F 69.8 °F 62% 29.86 in 6.2 mi SSW 6.9 mph - N/A   Scattered Clouds
8:30 AM 84.2 °F 88.4 °F 69.8 °F 62% 29.86 in 6.2 mi SSW 8.1 mph - N/A   Scattered Clouds
9:00 AM 86.0 °F 90.4 °F 69.8 °F 58% 29.86 in 6.2 mi South 10.4 mph - N/A   Partly Cloudy
9:30 AM 87.8 °F 92.6 °F 69.8 °F 55% 29.86 in 6.2 mi South 10.4 mph - N/A   Partly Cloudy
10:00 AM 87.8 °F 92.6 °F 69.8 °F 55% 29.86 in 6.2 mi SE 8.1 mph - N/A   Partly Cloudy
10:30 AM 89.6 °F 93.4 °F 68.0 °F 49% 29.86 in 6.2 mi SE 6.9 mph - N/A   Partly Cloudy
11:00 AM 89.6 °F 93.4 °F 68.0 °F 49% 29.86 in 6.2 mi SSE 9.2 mph - N/A   Partly Cloudy
11:30 AM 91.4 °F 95.4 °F 68.0 °F 46% 29.83 in 6.2 mi South 8.1 mph - N/A   Partly Cloudy
12:00 PM 91.4 °F 96.8 °F 69.8 °F 49% 29.83 in 6.2 mi ESE 4.6 mph - N/A   Partly Cloudy
12:30 PM 93.2 °F 97.7 °F 68.0 °F 44% 29.80 in 6.2 mi SSE 8.1 mph - N/A   Scattered Clouds
1:00 PM 93.2 °F 98.8 °F 69.8 °F 46% 29.80 in 6.2 mi ESE 8.1 mph - N/A   Scattered Clouds
1:30 PM 95.0 °F 98.5 °F 66.2 °F 39% 29.77 in 6.2 mi WSW 5.8 mph - N/A   Scattered Clouds
2:00 PM 93.2 °F 96.2 °F 66.2 °F 41% 29.74 in 6.2 mi SSE 5.8 mph - N/A   Scattered Clouds
2:30 PM 95.0 °F 98.5 °F 66.2 °F 39% 29.74 in 6.2 mi East 5.8 mph - N/A   Scattered Clouds
3:00 PM 95.0 °F 97.0 °F 64.4 °F 36% 29.71 in 6.2 mi SSE 6.9 mph - N/A   Scattered Clouds
3:30 PM 96.8 °F 99.0 °F 64.4 °F 34% 29.71 in 6.2 mi SSE 10.4 mph - N/A   Scattered Clouds
4:00 PM 96.8 °F 99.0 °F 64.4 °F 34% 29.71 in 6.2 mi SSE 4.6 mph - N/A   Scattered Clouds
4:30 PM 95.0 °F 97.0 °F 64.4 °F 36% 29.71 in 6.2 mi East 3.5 mph - N/A   Scattered Clouds
5:00 PM 95.0 °F 98.5 °F 66.2 °F 39% 29.71 in 6.2 mi SSE 8.1 mph - N/A   Scattered Clouds
5:30 PM 93.2 °F 97.7 °F 68.0 °F 44% 29.71 in 6.2 mi SSE 9.2 mph - N/A   Scattered Clouds
6:00 PM 91.4 °F 95.4 °F 68.0 °F 46% 29.71 in 5.6 mi SSE 9.2 mph - N/A   Partly Cloudy
6:30 PM 89.6 °F 93.4 °F 68.0 °F 49% 29.71 in 5.6 mi SSE 8.1 mph - N/A   Partly Cloudy
7:00 PM 89.6 °F 94.7 °F 69.8 °F 52% 29.71 in 5.6 mi SSE 6.9 mph - N/A   Partly Cloudy
7:30 PM 89.6 °F 94.7 °F 69.8 °F 52% 29.74 in 5.6 mi SSW 6.9 mph - N/A   Partly Cloudy
8:00 PM 87.8 °F 92.6 °F 69.8 °F 55% 29.74 in 5.6 mi South 8.1 mph - N/A   Partly Cloudy
8:30 PM 87.8 °F 92.6 °F 69.8 °F 55% 29.77 in 5.6 mi South 8.1 mph - N/A   Partly Cloudy
9:00 PM 87.8 °F 92.6 °F 69.8 °F 55% 29.77 in 5.6 mi SSE 5.8 mph - N/A   Partly Cloudy
9:30 PM 86.0 °F 90.4 °F 69.8 °F 58% 29.77 in 5.6 mi SSE 9.2 mph - N/A   Partly Cloudy
10:00 PM 84.2 °F 88.4 °F 69.8 °F 62% 29.80 in 5.6 mi SSE 9.2 mph - N/A   Partly Cloudy
10:30 PM 82.4 °F 86.3 °F 69.8 °F 66% 29.77 in 5.6 mi SSE 8.1 mph - N/A   Partly Cloudy
11:00 PM 82.4 °F 87.2 °F 71.6 °F 70% 29.80 in 5.6 mi SSE 9.2 mph - N/A   Partly Cloudy
11:30 PM 82.4 °F 87.2 °F 71.6 °F 70% 29.80 in 5.6 mi SSE 9.2 mph - N/A   Partly Cloudy